Terug naar catalogus

ONEWEB-0155

ActiefCommunicatiePO
NORAD 48057·PAYLOAD·🇬🇧 United Kingdom

Gelanceerd Mar 25, 2021 vanaf Vostochny Cosmodrome

Loading…

Volgende Passages (komende 24 uur)

TLE

VersSource: CelesTrak SupGP

Epoch: Sep 15, 2026, 00:55 UTC

1 48057C 21025R   26258.03836065  .00002939  00000+0  80561-2 0  2580
2 48057  87.8933 302.3486 0001839  98.1822 318.7536 13.13472227    17

Volg ONEWEB-0155 in realtime met AllMySat

Download on the App Store